User: anonymous   Login
Location: Krasnoyarskiy Pitomnik
(51.1333°N, 71.6167°E)
Time: 16:34:55
(UTC+00:00)
Language:

CZ-2C R/B - Orbit

View from above orbital plane
View from above orbital plane
View from above satellite
View from above satellite

Ground track
Ground track

The orbit data is extracted from the following two-line orbital elements,

1 28222U 04012C   22023.19746096  .00001661  00000-0  99919-4 0  9999
2 28222  97.7560   1.6343 0045744 187.8504 182.6932 15.11459440974315
Epoch (UTC): 23 January 2022 04:44:20
Eccentricity: 0.0045744
inclination: 97.7560°
perigee height: 500 km
apogee height: 563 km
right ascension of ascending node: 1.6343°
argument of perigee: 187.8504°
revolutions per day: 15.11459440
mean anomaly at epoch: 182.6932°
orbit number at epoch: 97431

The dashed part of the orbit path shows where the satellite is in the earth's shadow,  

DLR